Location: Izdebno
(52.6670°N, 16.2170°E)
Time: 10:46:48
(UTC+01:00)

ISS - Visible Passes

Search period start: 11 December 2023 00:00
Search period end: 21 December 2023 00:00
Orbit: 415 x 417 km, 51.6° (Epoch: 11 December)

Date Brightness Start Highest point End Pass type
(mag) Time Alt. Az. Time Alt. Az. Time Alt. Az.
15 Dec -0.3 07:00:06 10° SSE 07:01:32 12° SE 07:03:00 10° ESE visible
17 Dec -1.2 06:57:36 10° SSW 07:00:19 23° SSE 07:03:03 10° E visible
18 Dec -0.8 06:09:30 10° S 06:11:42 17° SE 06:13:55 10° ESE visible
19 Dec -0.6 05:21:57 10° SSE 05:23:07 11° SE 05:24:17 10° ESE visible
19 Dec -2.4 06:56:00 10° SW 06:59:09 39° SSE 07:02:20 10° E visible
20 Dec -1.9 06:07:28 10° SW 06:10:25 30° SSE 06:13:24 10° E visible
